Location: Star Camp Observatory
(34.2910°N, 116.3827°W)
Time: 12:32:22
(UTC-08:00)

Envisat - Pass Details

Date: 16 November 2019
Orbit: 764 x 766 km, 98.1° (Epoch: 11 December)

Event Time Altitude Azimuth Distance (km) Brightness Sun altitude
Rises 17:44:30 0° 163° (SSE) 3,215 6.2 -13.3°
Reaches altitude 10° 17:46:48 10° 162° (SSE) 2,293 5.4 -13.8°
Maximum altitude 17:51:51 80° 76° (ENE) 780 2.9 -14.8°
Drops below altitude 10° 17:56:56 10° 350° (N) 2,306 5.5 -15.8°
Sets 17:59:15 0° 350° (N) 3,235 6.2 -16.3°
